AirNav   Everest Fuels
 
 855 users online  

48CL Grass Valley Service Center Heliport
Grass Valley, California, USA

GOING TO GRASS VALLEY?


FAA INFORMATION EFFECTIVE 18 JUNE 2020

Location

FAA Identifier: 48CL
Lat/Long: 39-12-01.2000N 121-03-40.7000W
39-12.020000N 121-03.678333W
39.2003333,-121.0613056
(estimated)
Elevation: 2430 ft. / 741 m (estimated)
Variation: 16E (1985)
From city: 2 miles S of GRASS VALLEY, CA
Time zone: UTC -7 (UTC -8 during Standard Time)
Zip code: 95945

Heliport Operations

Heliport use: Private use. Permission required prior to landing
Activation date: 12/1974
Control tower: no
ARTCC: OAKLAND CENTER
FSS: RANCHO MURIETA FLIGHT SERVICE STATION
Attendance: MON-FRI 0700-2400
Wind indicator: yes
Segmented circle: no

Heliport Communications

WX AWOS-3 at GOO (3 nm NE): 121.325 (530-273-0029)
WX AWOS-3 at AUN (15 nm S): 119.375 (530-888-8934)
WX ASOS at BLU (17 nm E): 120.075 (530-389-2091)

Nearby radio navigation aids

VOR radial/distance  VOR name  Freq  Var
MYVr060/24.6MARYSVILLE VOR/DME110.8016E
HNWr316/32.0HANGTOWN VOR/DME115.5017E
MCCr010/35.8MC CLELLAN VOR/DME109.2017E
SWRr256/36.8SQUAW VALLEY VOR/DME113.2016E

Heliport Services

Runway Information

Helipad H1

Dimensions: 66 x 66 ft. / 20 x 20 m
Surface: asphalt
Latitude: 39-12.020000N
Longitude: 121-03.678333W
Elevation: 2430.0 ft.
Traffic pattern: leftleft

Heliport Ownership and Management from official FAA records

Ownership: Privately-owned
Owner: HELICOPTER OPERATIONS
301 COUNTY AIRPORT RD, SUITE 207
VACAVILLE, CA 95688-9527
Phone 707-449-5832
Manager: HELICOPTER OPERATIONS
301 COUNTY AIRPORT RD, SUITE 207
VACAVILLE, CA 95688-9527
Phone 707-449-5832
EXTENSION 2482

Additional Remarks

A52-H1 75' PINE 300' S, 100' PINE 450' N, TREES 300' TO THE W.
FOR CD CTC NORCAL APCH AT 916-361-6874.

Instrument Procedures

There are no published instrument procedures at 48CL.

Some nearby airports with instrument procedures:

KGOO - Nevada County Airport (3 nm NE)
KAUN - Auburn Municipal Airport (15 nm S)
KBAB - Beale Air Force Base (18 nm W)
KLHM - Lincoln Regional Airport/Karl Harder Field (22 nm SW)
KMYV - Yuba County Airport (24 nm W)
 
Loc | Ops | Rwys | IFR | FBO | Links
Com | Nav | Svcs | Stats | Notes
Area around 48CL (Grass Valley Service Center Heliport)
 
Road maps at: MapQuest Bing Google
 
Aerial photo
No photo
 
Sectional chart

 
Airport distance calculator
Flying to Grass Valley Service Center Heliport? Find the distance to fly.

From to 48CL

Sunrise and sunset
Times for 12-Jul-2020
 Local
(UTC-7)
 Zulu
(UTC)
Morning civil twilight05:1812:18
Sunrise05:5012:50
Sunset20:3003:30
Evening civil twilight21:0104:01

Current date and time
Zulu (UTC)  13-Jul-2020 02:18:32
Local (UTC-7)  12-Jul-2020 19:18:32
 
METAR
KGOO 
3nm NE 
130155Z AUTO VRB03KT 10SM CLR 31/02 A2996 RMK A01
KAUN 
15nm S 
130155Z AUTO 21007KT 10SM CLR 36/01 A2985 RMK A01
KBLU 
18nm E 
130152Z AUTO 21005KT 10SM CLR 26/03 A3015 RMK AO2 SLP098 T02560028
KBAB 
18nm W 
130158Z AUTO 20007KT 10SM CLR 38/08 A2972 RMK AO2 SLP066 T03760075 $
TAF
KBAB 
18nm W 
121840Z 1218/1317 VRB06KT 9999 SKC QNH2986INS BECMG 1220/1221 20009KT 9999 SKC QNH2970INS BECMG 1303/1304 VRB06KT 9999 SKC QNH2970INS TX41/1223Z TN15/1314Z LAST NO AMDS AFT 1218 NEXT 1314
NOTAMs
Click for the latest NOTAMs
NOTAMs are issued by the DoD/FAA and will open in a separate window not controlled by AirNav.

 

 
 

Would you like to see your business listed on this page?

 If your business provides an interesting product or service to pilots, flight crews, aircraft, or users of the Grass Valley Service Center Heliport, you should consider listing it here.  To start the listing process, click on the button below
 
Add a business
 

Other Pages about Grass Valley Service Center Heliport

Update a link
 
Copyright © AirNav, LLC. All rights reserved. Privacy Policy  Contact